Previsão horária em Barlogi

Hoje, 31 Outubro, Sábado

Tempo Temperatura Precipitação Vento Pressão Humidade
00:00 +13°C° 0.4 mm 5 m/s 757 mmHg 94%
01:00 +13°C° 0 mm 4 m/s 758 mmHg 96%
02:00 +13°C° 0.8 mm 3 m/s 758 mmHg 96%
03:00 +13°C° 0.8 mm 3 m/s 758 mmHg 97%
04:00 +13°C° 0.8 mm 3 m/s 758 mmHg 97%
05:00 +14°C° 0.6 mm 2 m/s 759 mmHg 97%
06:00 +14°C° 0.6 mm 2 m/s 759 mmHg 98%
07:00 +13°C° 0.6 mm 1 m/s 759 mmHg 98%
08:00 +13°C° 0.1 mm 1 m/s 760 mmHg 97%
09:00 +14°C° 0.1 mm 1 m/s 760 mmHg 96%
10:00 +14°C° 0.1 mm 1 m/s 760 mmHg 96%
11:00 +14°C° 0 mm 1 m/s 760 mmHg 94%
12:00 +14°C° 0 mm 1 m/s 760 mmHg 92%
13:00 +15°C° 0 mm 1 m/s 760 mmHg 90%
14:00 +15°C° 0 mm 1 m/s 760 mmHg 91%
15:00 +14°C° 0 mm 1 m/s 760 mmHg 93%
16:00 +14°C° 0 mm 1 m/s 760 mmHg 94%
17:00 +14°C° 0 mm 1 m/s 760 mmHg 94%
18:00 +14°C° 0 mm 2 m/s 759 mmHg 95%
19:00 +13°C° 0 mm 2 m/s 759 mmHg 95%
20:00 +13°C° 0 mm 2 m/s 759 mmHg 95%
21:00 +13°C° 0 mm 2 m/s 759 mmHg 95%
22:00 +11°C° 0 mm 3 m/s 759 mmHg 95%
23:00 +11°C° 0 mm 3 m/s 758 mmHg 95%

Amanhã, 1 Novembro, Domingo

Tempo Temperatura Precipitação Vento Pressão Humidade
00:00 +11°C° 0 mm 3 m/s 758 mmHg 94%
01:00 +10°C° 0 mm 3 m/s 758 mmHg 94%
02:00 +10°C° 0 mm 3 m/s 757 mmHg 94%
03:00 +11°C° 0 mm 3 m/s 757 mmHg 94%
04:00 +11°C° 0 mm 3 m/s 756 mmHg 94%
05:00 +10°C° 0 mm 3 m/s 756 mmHg 93%
06:00 +10°C° 0 mm 3 m/s 756 mmHg 93%
07:00 +10°C° 0 mm 3 m/s 756 mmHg 93%
08:00 +11°C° 0 mm 3 m/s 756 mmHg 90%
09:00 +12°C° 0 mm 3 m/s 755 mmHg 87%
10:00 +12°C° 0 mm 3 m/s 755 mmHg 85%
11:00 +12°C° 0.1 mm 4 m/s 755 mmHg 84%
12:00 +13°C° 0.1 mm 4 m/s 755 mmHg 84%
13:00 +13°C° 0.1 mm 4 m/s 754 mmHg 84%
14:00 +13°C° 0.6 mm 4 m/s 754 mmHg 86%
15:00 +12°C° 0.6 mm 4 m/s 753 mmHg 88%
16:00 +12°C° 0.6 mm 4 m/s 753 mmHg 90%
17:00 +12°C° 0.2 mm 4 m/s 753 mmHg 89%
18:00 +12°C° 0.2 mm 5 m/s 752 mmHg 89%
19:00 +12°C° 0.2 mm 5 m/s 752 mmHg 88%
20:00 +12°C° 0.4 mm 5 m/s 752 mmHg 89%
21:00 +13°C° 0.4 mm 5 m/s 752 mmHg 89%
22:00 +13°C° 0.4 mm 5 m/s 752 mmHg 89%
23:00 +13°C° 0 mm 5 m/s 752 mmHg 90%

Depois de amanhã, 2 Novembro, Segunda-feira

Tempo Temperatura Precipitação Vento Pressão Humidade
00:00 +14°C° 0 mm 4 m/s 752 mmHg 90%
01:00 +14°C° 0 mm 4 m/s 752 mmHg 90%
02:00 +14°C° 0 mm 4 m/s 752 mmHg 89%
03:00 +13°C° 0 mm 3 m/s 753 mmHg 87%
04:00 +13°C° 0 mm 3 m/s 753 mmHg 85%
05:00 +13°C° 0.1 mm 3 m/s 753 mmHg 87%
06:00 +13°C° 0.1 mm 2 m/s 753 mmHg 88%
07:00 +13°C° 0.1 mm 2 m/s 753 mmHg 90%
08:00 +14°C° 0.3 mm 2 m/s 753 mmHg 91%
09:00 +13°C° 0.3 mm 3 m/s 753 mmHg 92%
10:00 +14°C° 0.3 mm 3 m/s 753 mmHg 94%
11:00 +16°C° 0 mm 3 m/s 753 mmHg 90%
12:00 +17°C° 0 mm 4 m/s 753 mmHg 86%
13:00 +18°C° 0 mm 4 m/s 753 mmHg 82%
14:00 +18°C° 0 mm 4 m/s 753 mmHg 84%
15:00 +18°C° 0 mm 4 m/s 753 mmHg 86%
16:00 +17°C° 0 mm 4 m/s 753 mmHg 87%
17:00 +17°C° 0 mm 4 m/s 753 mmHg 85%
18:00 +17°C° 0 mm 4 m/s 754 mmHg 83%
19:00 +17°C° 0 mm 4 m/s 754 mmHg 81%
20:00 +17°C° 0 mm 4 m/s 754 mmHg 81%
21:00 +17°C° 0 mm 4 m/s 754 mmHg 81%
22:00 +17°C° 0 mm 4 m/s 754 mmHg 81%
23:00 +17°C° 0 mm 4 m/s 754 mmHg 82%

3 Novembro, Terça-feira

Tempo Temperatura Precipitação Vento Pressão Humidade
00:00 +17°C° 0 mm 4 m/s 754 mmHg 83%
01:00 +17°C° 0 mm 4 m/s 754 mmHg 83%
02:00 +17°C° 0 mm 4 m/s 755 mmHg 84%
03:00 +17°C° 0 mm 4 m/s 755 mmHg 85%
04:00 +15°C° 0 mm 4 m/s 755 mmHg 85%
05:00 +14°C° 0.2 mm 3 m/s 756 mmHg 83%
06:00 +13°C° 0.2 mm 3 m/s 757 mmHg 80%
07:00 +12°C° 0.2 mm 3 m/s 757 mmHg 77%
08:00 +12°C° 0 mm 4 m/s 758 mmHg 73%
09:00 +12°C° 0 mm 5 m/s 759 mmHg 69%
10:00 +11°C° 0 mm 6 m/s 760 mmHg 65%
11:00 +13°C° 0 mm 6 m/s 760 mmHg 63%
12:00 +13°C° 0 mm 6 m/s 760 mmHg 62%
13:00 +13°C° 0 mm 6 m/s 761 mmHg 61%
14:00 +12°C° 0 mm 5 m/s 761 mmHg 62%
15:00 +12°C° 0 mm 4 m/s 761 mmHg 64%
16:00 +11°C° 0 mm 3 m/s 761 mmHg 66%
17:00 +10°C° 0 mm 3 m/s 762 mmHg 68%
18:00 +10°C° 0 mm 3 m/s 762 mmHg 70%
19:00 +9°C° 0 mm 3 m/s 762 mmHg 71%
20:00 +9°C° 0 mm 3 m/s 763 mmHg 72%
21:00 +9°C° 0 mm 3 m/s 763 mmHg 72%
22:00 +8°C° 0 mm 3 m/s 763 mmHg 72%
23:00 +8°C° 0 mm 3 m/s 763 mmHg 74%

4 Novembro, Quarta-feira

Tempo Temperatura Precipitação Vento Pressão Humidade
00:00 +7°C° 0 mm 3 m/s 764 mmHg 75%
01:00 +7°C° 0 mm 3 m/s 764 mmHg 77%
02:00 +7°C° 0 mm 3 m/s 764 mmHg 78%
03:00 +5°C° 0 mm 3 m/s 764 mmHg 80%
04:00 +5°C° 0 mm 3 m/s 764 mmHg 81%
05:00 +4°C° 0 mm 3 m/s 764 mmHg 82%
06:00 +4°C° 0 mm 3 m/s 765 mmHg 83%
07:00 +4°C° 0 mm 3 m/s 765 mmHg 84%
08:00 +5°C° 0 mm 3 m/s 765 mmHg 80%
09:00 +7°C° 0 mm 3 m/s 765 mmHg 75%
10:00 +8°C° 0 mm 3 m/s 765 mmHg 71%
11:00 +8°C° 0 mm 3 m/s 765 mmHg 68%
12:00 +9°C° 0 mm 2 m/s 765 mmHg 65%
13:00 +10°C° 0 mm 2 m/s 765 mmHg 63%
14:00 +9°C° 0 mm 2 m/s 765 mmHg 66%
15:00 +9°C° 0 mm 1 m/s 765 mmHg 69%
16:00 +9°C° 0 mm 1 m/s 765 mmHg 73%
17:00 +8°C° 0 mm 1 m/s 766 mmHg 75%
18:00 +7°C° 0 mm 0 m/s 766 mmHg 77%
19:00 +6°C° 0 mm 0 m/s 766 mmHg 80%
20:00 +6°C° 0 mm 0 m/s 766 mmHg 81%
21:00 +6°C° 0 mm 0 m/s 767 mmHg 82%
22:00 +5°C° 0 mm 0 m/s 767 mmHg 83%
23:00 +5°C° 0 mm 0 m/s 767 mmHg 84%

5 Novembro, Quinta-feira

Tempo Temperatura Precipitação Vento Pressão Humidade
00:00 +5°C° 0 mm 0 m/s 767 mmHg 86%
01:00 +4°C° 0 mm 0 m/s 767 mmHg 87%
02:00 +4°C° 0 mm 0 m/s 767 mmHg 88%
03:00 +4°C° 0 mm 0 m/s 767 mmHg 90%
04:00 +5°C° 0 mm 1 m/s 767 mmHg 91%
05:00 +5°C° 0 mm 1 m/s 768 mmHg 91%
06:00 +5°C° 0 mm 1 m/s 768 mmHg 92%
07:00 +4°C° 0 mm 1 m/s 768 mmHg 93%
08:00 +6°C° 0 mm 1 m/s 769 mmHg 87%
09:00 +7°C° 0 mm 1 m/s 769 mmHg 82%
10:00 +8°C° 0 mm 1 m/s 769 mmHg 76%
11:00 +8°C° 0 mm 2 m/s 769 mmHg 72%
12:00 +9°C° 0 mm 2 m/s 769 mmHg 67%
13:00 +9°C° 0 mm 2 m/s 769 mmHg 62%
14:00 +9°C° 0 mm 2 m/s 769 mmHg 66%
15:00 +9°C° 0 mm 1 m/s 769 mmHg 69%
16:00 +8°C° 0 mm 1 m/s 769 mmHg 73%
17:00 +7°C° 0 mm 1 m/s 770 mmHg 77%
18:00 +7°C° 0 mm 1 m/s 770 mmHg 80%
19:00 +6°C° 0 mm 1 m/s 770 mmHg 84%
20:00 +5°C° 0 mm 2 m/s 771 mmHg 86%
21:00 +4°C° 0 mm 2 m/s 771 mmHg 88%
22:00 +4°C° 0 mm 2 m/s 771 mmHg 90%
23:00 +4°C° 0 mm 2 m/s 771 mmHg 92%
Mostrar mais